Location: *
(43.4667°N, 11.6833°E)
Time: 12:49:28
(UTC+00:00)

Terra - Pass Details

Date: 19 July 2019
Orbit: 702 x 703 km, 98.2° (Epoch: 18 August)

Event Time Altitude Azimuth Distance (km) Brightness Sun altitude
Exits shadow 22:11:03 21° 242° (WSW) 1,559 3.5 -23.9°
Maximum altitude 22:12:23 24° 266° (W) 1,455 3.5 -23.9°
Drops below altitude 10° 22:16:13 10° 320° (NW) 2,178 5.2 -24.1°
Sets 22:18:53 0° 334° (NNW) 3,102 6.5 -24.3°
